SCP
0 1 1 1 1 1 1 1 1 1 1 1 1 1 1 1 1 1 1 1 1 1 1 1 1 1 1 1 0 0 1 1 1 1 0 0 0 1 1 1 1 1 1
1 1 1 1 1 1 1 1 1 1 1 1 1 1 1 1 1 1 1 1 1 1 1 1 1 1 1 0 0 0 1 1 1 1 0 0 0 1 1 1 1 1 1
0 1 1 1 1 1 1 1 1 1 1 1 1 1 1 1 1 1 1 1 1 1 1 1 1 1 0 0 0 0 1 1 1 0 0 0 0 1 1 1 1 1 1
0 1 1 1 1 1 1 0 0 0 0 0 1 1 1 1 1 1 0 1 1 1 1 1 1 1 0 0 0 0 1 1 1 0 1 1 0 1 1 1 1 1 1
0 0 0 0 0 0 0 0 0 0 0 0 0 0 1 1 1 1 0 1 1 1 1 1 1 0 0 0 0 1 1 1 1 1 1 1 1 1 1 1 1 1 1
0 0 0 0 0 0 0 0 0 0 0 0 0 0 0 1 1 1 1 1 1 1 1 1 1 1 1 1 1 1 1 1 1 1 1 1 1 1 1 1 1 1 1
0 0 1 1 1 0 0 0 0 0 0 0 0 1 1 1 1 1 1 1 1 1 1 1 1 1 1 1 1 1 1 1 1 1 1 1 1 1 1 1 1 0 0
1 1 1 1 1 0 0 0 0 0 0 0 1 1 1 1 1 1 2 2 2 1 1 1 1 1 1 1 1 1 1 0 0 0 1 1 1 1 1 1 0 0 0
1 1 1 1 1 0 0 1 1 1 1 1 1 1 1 1 1 1 2 2 1 1 1 1 1 1 1 1 1 1 1 0 0 0 0 0 0 0 0 0 0 0 0
1 1 1 1 1 0 0 1 1 1 1 1 1 1 1 1 1 1 2 2 1 1 1 1 1 1 1 1 2 1 1 0 0 0 0 0 0 0 0 0 0 0 0
2 1 1 0 0 0 0 0 1 1 1 1 1 1 1 1 1 1 1 1 1 1 1 1 1 1 1 1 1 1 1 0 0 0 0 0 0 0 0 0 0 0 0
2 2 1 1 1 1 0 0 0 0 1 1 1 1 1 1 1 1 1 1 1 1 1 1 1 1 1 1 1 1 0 0 0 0 0 0 1 1 0 0 0 0 0
2 2 1 1 1 1 0 0 0 0 0 1 1 1 1 1 1 1 1 1 1 1 1 1 1 1 1 1 0 0 0 0 0 0 0 0 1 1 1 0 0 0 0
3 2 1 1 1 1 1 1 1 1 1 0 0 0 0 1 1 1 1 1 1 1 1 1 1 1 1 1 0 0 0 0 0 0 0 1 1 1 1 1 0 0 0
3 2 2 1 1 1 1 1 1 1 1 1 1 1 1 0 0 1 1 1 1 1 1 1 1 1 1 0 0 0 0 0 0 0 0 1 1 1 1 1 1 0 0
3 3 2 2 1 1 1 1 1 1 1 1 1 1 1 1 1 1 1 1 1 1 1 1 1 1 0 0 0 0 0 0 0 0 0 0 1 1 1 1 1 1 1
4 3 3 2 2 1 1 1 1 1 1 1 1 1 1 1 1 1 1 1 1 1 1 1 1 0 0 0 0 0 0 0 0 0 0 0 1 1 1 1 1 1 1
4 4 3 3 2 1 1 1 1 1 1 1 1 1 1 1 1 1 1 1 1 1 1 1 0 0 0 0 0 0 0 0 0 0 0 0 0 1 1 1 1 1 1
5 5 4 3 3 2 2 1 1 1 1 1 1 1 1 1 1 1 1 1 1 2 1 1 0 0 0 0 0 0 0 0 0 0 0 0 0 1 1 1 1 1 1
5 5 5 5 4 3 2 2 1 2 2 1 1 1 1 1 1 1 1 1 2 2 1 1 1 0 0 0 0 0 0 0 0 0 0 0 0 0 0 1 1 1 1
6 6 6 5 5 4 3 2 2 1 1 1 1 1 1 1 1 2 1 1 2 2 1 1 1 1 1 0 0 0 0 0 0 0 0 0 0 0 0 0 0 1 1
5 5 5 5 4 4 3 3 2 1 1 1 1 2 2 2 2 2 2 2 2 1 1 1 1 1 1 1 0 0 0 0 0 0 0 0 0 0 0 0 0 0 1
5 5 4 4 3 3 2 2 2 2 1 1 1 2 2 2 2 2 2 2 1 1 1 1 1 1 1 1 1 0 0 0 0 0 0 0 0 0 0 0 0 1 1
5 4 4 3 2 2 2 2 2 2 1 1 2 2 2 2 2 2 2 2 1 1 1 1 1 1 1 1 0 0 0 0 0 0 0 0 0 0 0 0 0 1 1
4 3 3 3 2 2 2 2 2 2 2 2 2 2 2 2 2 2 2 2 2 2 1 1 1 1 1 1 0 0 0 0 0 0 0 0 0 0 0 0 0 0 0
3 3 2 2 3 3 3 2 2 2 2 2 2 2 2 2 2 2 2 2 2 2 1 1 1 1 1 1 0 0 0 0 0 0 0 0 0 0 0 0 0 0 0
Wind_Speed
3 3 10 12 13 14 15 15 15 15 16 16 17 17 17 17 17 17 16 16 16 16 16 16 16 16 17 17 17 16 16 17 17 16 16 16 16 16 16 16 15 12 17
4 5 10 12 13 14 14 15 15 15 15 16 16 16 16 17 17 16 16 16 17 16 17 16 17 17 17 16 16 15 16 16 16 15 15 14 15 15 15 15 15 10 16
6 5 9 12 13 13 14 14 15 16 16 15 16 15 16 16 16 16 16 16 17 16 16 16 16 16 15 15 15 14 14 15 15 14 12 7 9 14 14 15 15 15 15
7 5 8 12 13 14 14 14 15 15 15 15 15 16 16 16 16 16 16 16 16 16 16 16 16 15 15 15 14 14 14 14 13 13 6 5 7 13 14 14 14 15 15
6 5 7 13 13 14 14 14 14 15 15 15 15 16 16 16 15 16 16 15 15 15 15 15 15 14 14 14 13 13 12 12 12 10 6 5 5 12 14 14 14 14 14
6 5 8 13 13 13 14 14 14 14 15 15 15 15 15 15 15 15 15 14 14 14 14 14 14 13 12 12 11 11 11 12 10 7 6 5 5 11 13 13 13 13 12
6 4 7 13 13 13 13 13 13 14 14 14 14 14 14 14 15 14 14 13 13 13 13 13 12 12 11 10 10 10 10 12 8 6 5 5 6 11 12 12 12 12 12
8 5 6 12 12 12 12 12 13 14 14 14 14 13 13 13 13 13 13 12 12 12 12 11 10 10 9 8 8 8 9 10 9 7 6 5 8 10 12 12 11 11 12
8 6 4 5 8 11 13 12 14 14 13 13 13 12 12 12 12 11 11 11 11 10 10 9 8 7 6 5 6 6 8 10 6 5 7 4 9 11 12 11 11 11 11
6 5 4 4 4 5 6 11 12 12 12 12 11 11 10 10 10 10 8 8 9 8 7 7 6 5 4 4 5 7 9 9 5 4 3 5 10 11 12 11 11 11 11
7 4 4 4 4 4 5 8 8 10 10 10 8 9 7 3 3 4 6 7 7 6 5 4 4 3 3 3 3 5 6 3 4 3 3 8 11 12 12 11 11 11 10
7 5 4 5 5 4 5 4 3 3 4 3 3 3 2 2 1 3 4 5 4 4 3 2 2 2 2 1 2 3 2 4 3 3 4 10 11 11 11 11 11 11 10
8 7 6 6 5 5 3 3 2 1 2 2 3 3 2 1 1 1 1 1 1 1 0 1 1 0 1 1 1 1 3 3 2 3 5 10 11 11 11 11 11 11 11
7 6 6 6 5 5 4 3 3 2 2 2 3 3 2 2 2 1 1 1 0 0 0 0 0 1 1 1 2 2 2 3 3 3 5 11 11 11 11 11 11 11 11
6 6 5 6 6 5 5 3 4 3 3 3 3 3 3 3 2 2 1 1 1 1 1 1 1 0 0 1 2 3 3 4 4 4 4 11 11 11 11 11 11 11 11
6 6 5 6 6 5 4 3 3 3 3 3 3 3 4 3 3 2 1 1 1 1 1 1 1 1 0 1 1 2 3 4 4 4 3 7 11 11 11 12 12 11 11
7 6 5 5 5 5 4 3 3 2 3 3 3 3 4 3 3 2 2 1 0 0 0 0 1 1 0 0 0 1 3 3 4 5 5 4 5 9 12 12 12 11 11
8 7 5 5 5 4 3 3 2 2 3 2 2 3 3 4 4 2 2 1 1 0 1 0 0 1 1 0 1 1 2 3 4 5 5 5 4 4 8 12 12 11 11
9 7 6 5 5 4 4 3 3 2 2 2 2 2 3 3 4 3 2 1 1 1 1 1 1 0 1 1 1 1 2 2 4 5 5 5 5 5 4 8 11 11 12
8 7 7 6 5 4 3 2 2 2 2 2 2 2 3 3 3 3 2 2 1 1 0 0 0 0 1 1 1 1 1 2 2 3 5 4 4 5 5 5 5 7 11
8 7 7 7 5 4 2 2 2 2 1 1 2 3 3 3 3 3 2 2 2 1 1 1 0 1 1 0 1 2 3 1 1 2 3 3 4 5 5 5 4 4 4
9 8 7 7 6 5 3 3 2 2 2 2 1 2 3 3 3 3 3 2 2 1 1 0 0 0 1 0 1 1 2 4 3 1 1 3 4 3 4 5 4 5 3
9 9 8 7 6 5 4 3 2 1 1 1 1 1 2 3 3 3 3 3 2 2 2 1 1 1 1 1 1 2 2 2 2 2 1 1 2 3 3 3 4 4 5
10 9 7 7 6 5 5 4 4 3 3 3 2 2 2 3 3 3 3 3 3 2 2 2 2 1 1 1 1 1 2 3 2 1 2 2 1 1 2 3 3 3 3
11 9 8 7 6 6 5 6 5 4 3 2 2 2 2 2 3 3 3 3 3 2 2 2 1 1 1 1 1 1 0 0 2 2 1 2 2 1 0 1 1 2 3
9 9 8 8 7 6 6 6 6 6 4 3 3 3 2 2 2 3 3 3 3 2 3 2 2 1 1 1 1 1 1 1 1 2 2 1 1 1 1 0 1 1 2
Wind_Direction
44 61 80 85 85 84 86 87 88 91 93 96 97 97 100 102 103 105 105 110 113 111 113 113 113 113 113 113 113 114 116 116 115 116 118 118 119 120 121 121 119 118 120
98 78 88 87 87 88 89 89 89 91 94 97 98 99 101 103 104 105 106 109 113 109 109 108 109 111 112 112 112 114 116 115 114 116 117 119 120 121 121 120 119 122 124
98 85 88 89 88 89 92 92 90 91 93 96 99 99 101 103 104 105 108 109 111 111 110 109 109 110 111 113 113 113 114 115 113 113 111 109 117 121 121 121 122 124 125
106 95 98 96 92 92 93 93 93 94 95 97 100 99 100 101 103 104 107 110 111 111 111 110 111 111 111 112 112 113 114 114 113 113 107 110 116 121 122 124 125 127 127
96 94 104 103 100 98 97 96 97 98 100 100 101 101 100 101 103 104 108 111 111 113 112 111 111 110 111 111 111 113 115 115 114 108 104 103 109 124 126 128 129 129 130
97 95 106 106 104 103 102 100 101 103 104 103 103 102 102 103 106 107 108 110 110 112 113 112 112 112 111 111 111 114 115 116 111 107 106 106 112 126 128 131 132 133 134
106 98 107 110 109 108 107 106 109 109 107 107 106 104 104 103 105 109 110 111 112 112 111 112 114 112 110 112 113 114 114 118 113 112 115 114 122 129 130 132 133 134 134
119 107 110 116 116 113 110 111 117 115 112 111 109 109 109 107 106 108 109 109 109 108 111 113 113 112 110 108 110 116 120 122 120 123 122 125 133 132 134 135 135 136 136
121 115 104 114 117 117 116 114 119 119 118 117 115 116 115 114 113 113 111 111 112 112 114 116 116 114 109 104 109 117 123 124 119 127 133 132 139 140 139 138 138 140 142
126 125 121 117 111 115 118 121 122 122 123 124 121 120 119 120 118 118 118 119 118 119 120 121 123 123 111 101 107 117 125 125 120 122 129 143 145 145 144 144 144 145 147
134 137 139 137 131 130 132 132 129 129 128 125 123 124 118 104 106 118 131 130 129 130 133 135 135 128 102 93 107 120 120 123 129 131 144 151 153 153 152 152 152 152 153
152 158 158 158 159 154 144 129 130 134 129 126 126 128 121 124 136 136 137 145 145 150 155 160 161 132 102 106 110 107 118 137 138 144 156 158 160 159 158 157 158 158 158
160 165 169 170 168 162 145 143 143 138 138 147 154 155 144 129 125 118 105 120 123 149 78 61 61 126 165 173 155 143 142 143 152 154 161 163 163 163 163 163 164 164 164
146 154 159 156 155 162 154 153 158 155 159 167 172 167 149 137 138 151 149 157 147 158 117 20 290 289 227 187 167 156 158 152 158 153 169 169 169 170 171 172 172 172 172
143 147 146 140 144 146 143 158 155 166 166 169 170 168 156 145 149 151 167 170 193 199 188 200 240 254 146 148 172 160 166 163 166 164 171 176 176 178 178 178 179 181 180
144 146 141 134 140 135 136 146 150 155 156 154 163 170 160 150 148 148 155 154 166 184 186 179 183 175 191 158 171 162 161 166 170 170 176 183 185 184 185 184 187 189 189
148 142 140 135 130 128 132 140 138 150 150 152 163 167 155 154 154 149 150 142 203 182 134 72 50 44 37 140 191 173 171 174 176 180 181 184 190 193 192 193 194 193 195
144 144 150 144 129 136 142 137 139 145 144 156 155 156 159 158 158 153 151 180 222 139 100 91 44 33 350 293 244 229 194 187 187 185 184 186 188 193 200 200 199 199 201
152 152 153 143 149 154 153 147 143 140 149 163 159 164 169 164 164 158 169 191 177 134 141 165 99 170 248 282 261 240 215 198 192 186 184 189 190 194 196 208 209 206 208
156 156 153 155 163 157 145 125 116 122 157 166 168 173 166 170 163 152 163 178 154 129 118 58 92 317 234 251 289 309 279 225 194 193 191 189 192 199 198 205 211 219 217
156 156 158 161 169 155 139 138 143 169 179 185 190 178 169 171 163 156 168 168 156 157 183 184 134 360 315 310 38 350 337 325 230 208 191 179 189 199 198 202 206 213 216
166 165 163 169 171 169 166 166 170 174 184 188 194 178 180 180 180 176 175 182 176 163 175 181 130 74 310 94 130 75 356 349 343 282 189 181 190 192 206 205 203 207 208
172 173 175 177 173 175 169 151 143 114 100 139 174 206 206 188 187 184 187 190 187 177 196 217 195 165 252 301 150 145 146 241 304 334 300 217 203 202 209 201 204 207 202
179 175 172 174 175 178 166 159 166 178 197 204 198 203 215 206 197 193 196 193 189 187 199 222 210 183 160 287 309 194 184 175 169 308 329 319 259 214 212 206 199 193 193
178 176 177 175 179 181 177 177 179 191 199 203 194 195 213 222 212 204 198 191 194 193 201 214 205 185 169 184 242 275 260 192 168 168 259 310 346 325 226 195 176 179 191
177 178 179 178 186 187 185 184 186 193 193 192 201 198 209 218 230 226 207 195 194 197 204 209 203 198 204 198 223 230 183 189 209 179 205 243 276 316 8 71 169 192 190